Regional Weather Roundup
Issued by NWS San Diego, CA

Home | Current Version | Previous Version | Text Only | Print | Product List | Glossary On
Versions: 1 2 3 4 5 6 7 8 9 10 11 12 13 14 15 16 17 18 19 20 21 22 23 24 25 26 27 28 29 30 31 32 33 34 35 36 37 38 39 40 41 42 43 44 45 46 47 48 49 50
000
ASUS46 KSGX 251211
RWRSGX

SAN DIEGO HOURLY WEATHER ROUNDUP
NATIONAL WEATHER SERVICE SAN DIEGO CA
500 AM PDT THU MAY 25 2017

NOTE: "FAIR" INDICATES FEW OR NO CLOUDS BELOW 12,000 FEET WITH NO
SIGNIFICANT WEATHER AND/OR OBSTRUCTIONS TO VISIBILITY.

CAZ042-043-060-061-PZZ750-775-251300-

GREATER SAN DIEGO AREA

CITY           SKY/WX    TMP DP  RH WIND       PRES   REMARKS
SAN DIEGO AP   CLOUDY    62  51  67 SW3       29.87S
NATIONAL CITY    N/A     61  52  71 S2        29.86S
CHULA VISTA      N/A     60  52  75 CALM      29.78S
IMPERIAL BEACH CLOUDY    59  50  72 CALM      29.87R
BROWN FIELD    CLOUDY    58  49  72 SW7       29.85S
MIRAMAR MCAS   CLOUDY    63  48  58 CALM      29.85S
MONTGOMERY FLD CLOUDY    60  48  64 W5        29.86R

$$

NORTH SAN DIEGO COUNTY

CITY           SKY/WX    TMP DP  RH WIND       PRES   REMARKS
CAMP PENDLETON CLOUDY    60  52  74 CALM      29.85S
OCEANSIDE AP   CLOUDY    60  50  69 SW6       29.85R
OCEANSIDE HBR    N/A     60  52  76 SW1       29.88S
VISTA            N/A     58  51  78 CALM      29.83S
CARLSBAD       CLOUDY    59  49  69 SW9       29.85R
DEL MAR          N/A     59  52  78 CALM      29.88S
LA JOLLA SCRIP   N/A     59  53  80 SW2       29.85S
FALLBROOK        N/A     57  54  88 CALM        N/A
ESCONDIDO        N/A     58  51  76 CALM      29.86S
SAN MARCOS       N/A     57  50  77 CALM      29.87R
POWAY            N/A     58  50  75 CALM      29.86S

$$

EAST SAN DIEGO COUNTY

CITY           SKY/WX    TMP DP  RH WIND       PRES   REMARKS
RAMONA         CLOUDY    55  51  86 NW7       29.85R
SANTEE LAKES     N/A     58  51  76 CALM      29.84S
LA MESA          N/A     57  49  75 CALM      29.79R
JAMUL            N/A     56  50  81 CALM      29.84S
DESCANSO N       N/A     41  33  73 CALM      29.73R
MT. LAGUNA OBS   N/A     53 -12   6 W6        29.53S
CAMPO            N/A     45  45 100 NE3       29.83S

$$

ORANGE COUNTY AND THE LOS ANGELES BASIN

CITY           SKY/WX    TMP DP  RH WIND       PRES   REMARKS
JOHN WAYNE AP  CLOUDY    62  51  67 CALM      29.85R
LAKE FOREST FR   N/A     57  48  73 CALM      29.73R
HUNTINGTON BCH   N/A     59  53  79 W3        29.86S
LOS ALAMITOS   CLOUDY    59  50  72 S3        29.85R
FULLERTON      CLOUDY    62  49  62 CALM      29.84S
LONG BEACH     CLOUDY    60  47  61 SW3       29.85S
L.A. AP        CLOUDY    59  52  77 S3        29.85S
L.A. DOWNTOWN  CLOUDY    61  51  70 CALM      29.84S

$$

THE INLAND EMPIRE

CITY           SKY/WX    TMP DP  RH WIND       PRES   REMARKS
CORONA         CLOUDY    59  50  72 NW5       29.85S
CHINO          CLOUDY    59  52  77 W6        29.86R
ONTARIO        CLOUDY    56  52  86 W7        29.85R
SAN BERNARDINO CLOUDY    60  52  74 W6        29.84S
RIVERSIDE AP   CLOUDY    57  53  86 W8        29.85R
MORENO VALLEY    N/A     56  54  95 S2        27.96R
MARCH ARB      CLOUDY    55  54  94 SE7       29.84S
HORSETHIEF CYN   N/A     55  48  76 CALM      29.82S
PERRIS           N/A     53  52  95 SW3       29.87R
HEMET EAST       N/A     53  46  76 CALM      29.85S
FRENCH VALLEY  CLOUDY    54  50  87 SW3       29.86R
TEMECULA         N/A     56  53  91 SW2       29.90S

$$

SAN BERNARDINO AND RIVERSIDE COUNTY MOUNTAINS

CITY           SKY/WX    TMP DP  RH WIND       PRES   REMARKS
BIG BEAR AP    CLEAR     46   5  18 W7        29.94S
ANGELUS OAKS     N/A     49  15  25 CALM      29.60
PINE COVE        N/A     54  -6   8 CALM      29.65S

$$

SOUTHERN DESERT INCLUDING THE COACHELLA VALLEY

CITY           SKY/WX    TMP DP  RH WIND       PRES   REMARKS
PALM SPRINGS   CLEAR     70  39  32 CALM      29.60S
PALM DESERT      N/A     68  44  41 CALM      30.01S
THERMAL        CLEAR     76  30  18 W12G23    29.56R
BLYTHE         PTCLDY    72  37  28 S8        29.55S
IMPERIAL AP    LGT RAIN  76  23  14 W13       29.58S
EL CENTRO NAS  LGT RAIN  78  13   8 W23       29.60R
YUMA AZ        MOCLDY    72  24  16 SW7       29.60R

$$

UPPER DESERT

CITY           SKY/WX    TMP DP  RH WIND       PRES   REMARKS
VICTORVILLE AP CLEAR     55  39  54 S12       29.74F
HESPERIA         N/A     55  40  56 W7        29.75R
PALMDALE       CLEAR     61  28  28 SW16      29.74F
LANCASTER      CLEAR     56  38  50 SW18      29.74S
EDWARDS AFB    CLEAR     60  32  35 SW14      29.71R
DAGGETT        CLEAR     66  30  26 W13       29.65R
29 PALMS N     CLEAR     71  10   9 W13       29.71S
NEEDLES        CLEAR     85  33  15 W12       29.54S

$$

REGIONAL REPORTS

CITY           SKY/WX    TMP DP  RH WIND       PRES   REMARKS
SANTA BARBARA  CLOUDY    57  54  89 E5        29.84S
SANDBERG       FOG       46  44  93 SW9       29.85F VSB<1/4
LAS VEGAS NV   MOCLDY    78  27  15 S10       29.52R
PHOENIX AZ     MOCLDY    81  30  15 E6        29.61R
TIJUANA        CLOUDY    59  46  63 CALM      29.88
ENSENADA NW      N/A     60  32  35 W2        29.84R

$$

OFFSHORE ISLANDS

CITY           SKY/WX    TMP DP  RH WIND       PRES   REMARKS
CATALINA ARPT  CLOUDY    52  49  89 W5        29.86R
SAN NICOLAS IS CLOUDY   N/A N/A N/A SW8       29.85S

$$

MARINE AND OFFSHORE BUOY REPORTS

STATION/POSITION SKY/WX   TEMP    WIND        PRES    VSBY  SWELL
                          AIR SEA DIR/SP/G                  HT/PER/DIR
                          (F)     (DEG/KT/KT) (MB)    (MI)  (FT/S/D)
TANNER BANKS               60 60  290/  8/ 12 1010.9          3/290/11
SAN NICOLAS IS.               59                N/A           5/280/13
SO. S. ROSA ISLA           56 57  220/  2/  4 1010.5          5/280/12
W. S. BARBARA CH           56 55  160/  2/  4 1010.1S
M. S. BARBARA CH                  110/  2/  4 1011.1R
S. MONICA BASIN            59 63  200/  4/  6 1010.6R
S PEDRO CHANNEL               63                N/A           2/260/13
CMP PENDLETON NS              62                N/A           2/220/14
OCEANSIDE OFFSHR              63                N/A           2/190/14
TORREY PINES OTR              65                N/A           3/220/13
SAN DIEGO BAY                 69              1011.3R
POINT LOMA SOUTH              64                N/A           3/230/13

$$




USA.gov is the U.S. government's official web portal to all federal, state and local government web resources and services.